NJE3TW EBAW-EGLC

Flight info

Callsign NJE3TW
Flight time N/A
Altitude 18000
Route NIK L179 KEGIT/N0467F200 L608 SASKI/N0454F180 L608 SUMUM
Aircraft C750/M-SBDE3FGHRWXY/S

Departure

Time 2026-04-29 16:08
Airport Antwerp International Airport (Deurne) (EBAW)

Arrival

Time N/A
Airport London City Airport (EGLC)
Time Latitude Longitude Altitude Speed Heading
2026-04-29 15:50 51.18917 4.45323 33 ft 0 kts 328°
2026-04-29 16:05 51.18926 4.45314 33 ft 5 kts 328°
2026-04-29 16:05 51.18949 4.45312 33 ft 5 kts 45°
2026-04-29 16:05 51.18953 4.45380 33 ft 8 kts 94°
2026-04-29 16:05 51.18977 4.45450 33 ft 9 kts 48°
2026-04-29 16:06 51.19028 4.45516 33 ft 7 kts 351°
2026-04-29 16:06 51.19074 4.45466 33 ft 9 kts 320°
2026-04-29 16:06 51.19093 4.45440 33 ft 0 kts 321°
2026-04-29 16:06 51.19096 4.45437 33 ft 4 kts 321°
2026-04-29 16:07 51.19162 4.45355 34 ft 19 kts 323°
2026-04-29 16:07 51.19220 4.45323 36 ft 3 kts 82°
2026-04-29 16:07 51.19206 4.45399 35 ft 13 kts 108°
2026-04-29 16:07 51.19138 4.45699 36 ft 62 kts 110°
2026-04-29 16:08 51.18898 4.46779 194 ft 130 kts 106°
2026-04-29 16:08 51.18522 4.48135 1215 ft 137 kts 113°
2026-04-29 16:08 51.18014 4.49511 2214 ft 152 kts 117°
2026-04-29 16:08 51.17375 4.51036 3190 ft 175 kts 119°
2026-04-29 16:09 51.16655 4.52722 4123 ft 184 kts 121°
2026-04-29 16:09 51.15945 4.54408 5134 ft 184 kts 121°
2026-04-29 16:09 51.15075 4.56040 5560 ft 215 kts 142°
2026-04-29 16:09 51.13613 4.56554 5406 ft 224 kts 182°
2026-04-29 16:10 51.12241 4.55352 5236 ft 235 kts 223°
2026-04-29 16:10 51.11613 4.52946 5052 ft 242 kts 261°
2026-04-29 16:10 51.11392 4.50340 4919 ft 235 kts 255°
2026-04-29 16:10 51.11092 4.47783 4785 ft 236 kts 258°
2026-04-29 16:11 51.10901 4.45152 4655 ft 247 kts 265°
2026-04-29 16:11 51.10957 4.42293 4571 ft 273 kts 277°
2026-04-29 16:11 51.11463 4.39275 4542 ft 289 kts 294°
2026-04-29 16:11 51.12376 4.36399 4543 ft 292 kts 299°
2026-04-29 16:12 51.13235 4.33456 4529 ft 294 kts 292°
2026-04-29 16:12 51.13683 4.31425 4529 ft 294 kts 288°
2026-04-29 16:12 51.14506 4.27281 4524 ft 293 kts 289°
2026-04-29 16:12 51.15188 4.24230 4506 ft 293 kts 291°
2026-04-29 16:13 51.15893 4.21190 4501 ft 293 kts 291°
2026-04-29 16:13 51.16574 4.18139 4495 ft 292 kts 290°
2026-04-29 16:13 51.17246 4.15095 4483 ft 291 kts 290°
2026-04-29 16:13 51.17929 4.12065 4476 ft 291 kts 291°
2026-04-29 16:14 51.18615 4.09024 4477 ft 292 kts 291°
2026-04-29 16:14 51.19300 4.05966 4480 ft 294 kts 290°
2026-04-29 16:14 51.19976 4.02939 4467 ft 294 kts 290°
2026-04-29 16:14 51.20678 3.99801 5014 ft 298 kts 290°
2026-04-29 16:15 51.21360 3.96749 6865 ft 296 kts 290°
2026-04-29 16:15 51.22046 3.93665 8690 ft 292 kts 291°
2026-04-29 16:15 51.22733 3.90559 10576 ft 289 kts 291°
2026-04-29 16:15 51.23386 3.87623 12289 ft 284 kts 291°
2026-04-29 16:16 51.24044 3.84649 14100 ft 277 kts 294°
2026-04-29 16:16 51.24671 3.81836 15629 ft 268 kts 292°
2026-04-29 16:16 51.25281 3.79063 17138 ft 260 kts 294°
2026-04-29 16:16 51.25891 3.76321 18201 ft 276 kts 294°
2026-04-29 16:17 51.26587 3.73219 18245 ft 313 kts 294°